Lynchburg, VA

11:02 AM EDT on August 23, 2017 (GMT -0400)
Lynchburg Regional-Glenn

Weather History for KLYH - May, 2013

Change the Weather History Date:

Tuesday, May 14, 2013

  Actual Average Record
Temperature  
Mean Temperature 52 °F 62 °F  
Max Temperature 70 °F 75 °F 92 °F (1956)
Min Temperature 34 °F 50 °F 33 °F (1997)
Degree Days  
Heating Degree Days 13 4  
Month to date heating degree days 115 73  
Since 1 July heating degree days 4257 4396  
Cooling Degree Days 0 2  
Month to date cooling degree days 7 17  
Year to date cooling degree days 47 35  
Growing Degree Days 2 (Base 50)    
Moisture  
Dew Point 37 °F    
Average Humidity 60    
Maximum Humidity 92    
Minimum Humidity 28    
Precipitation  
Precipitation 0.00 in 0.12 in 2.21 in (2009)
Month to date precipitation 3.82 1.60  
Year to date precipitation 18.14 14.56  
Snow  
Snow 0.00 in - - ()
Month to date snowfall 0.0  
Since 1 July snowfall 13.0  
Snow Depth 0.00 in    
Sea Level Pressure  
Sea Level Pressure 30.16 in    
Wind  
Wind Speed 5 mph (SSW)    
Max Wind Speed 15 mph    
Max Gust Speed 23 mph    
Visibility 10 miles    
Events      
T = Trace of Precipitation, MM = Missing Value Source: NWS Daily Summary

Daily Weather History Graph

Daily Weather History Graph

Search for Another Location

Airport or City:

Trip Planner

Search our weather history database for the weather conditions in past years. The results will help you decide how hot, cold, wet, or windy it might be!

Date:

Astronomy

May. 14, 2013 Rise Set
Actual Time 6:08 AM EDT 8:18 PM EDT
Civil Twilight 5:39 AM EDT 8:47 PM EDT
Nautical Twilight 5:03 AM EDT 9:23 PM EDT
Astronomical Twilight 4:25 AM EDT 10:01 PM EDT
Moon 9:46 AM EDT (5/14) No Moon Set
Length of Visible Light 15h 07m
Length of Day
14h 09m
Waxing Crescent, 19% of the Moon is Illuminated
May 14
Waxing Crescent
May 18
First Quarter
May 25
Full
May 31
Last Quarter
Jun 8
New

Hourly Weather History & Observations

Time (EDT) Temp. Dew Point Humidity Pressure Visibility Wind Dir Wind Speed Gust Speed Precip Events Conditions
12:54 AM 37.9 °F 34.0 °F 86% 30.22 in 10.0 mi Calm Calm - N/A   Clear
1:54 AM 37.9 °F 35.1 °F 89% 30.21 in 10.0 mi Calm Calm - N/A   Clear
2:54 AM 37.0 °F 34.0 °F 89% 30.22 in 10.0 mi Calm Calm - N/A   Clear
3:54 AM 36.0 °F 33.1 °F 89% 30.22 in 10.0 mi Calm Calm - N/A   Clear
4:54 AM 35.1 °F 33.1 °F 92% 30.22 in 10.0 mi Calm Calm - N/A   Clear
5:54 AM 36.0 °F 33.1 °F 89% 30.24 in 10.0 mi Calm Calm - N/A   Clear
6:54 AM 36.0 °F 34.0 °F 93% 30.25 in 10.0 mi Calm Calm - N/A   Clear
7:54 AM 43.0 °F 37.9 °F 82% 30.24 in 10.0 mi Calm Calm - N/A   Clear
8:54 AM 50.0 °F 37.9 °F 63% 30.25 in 10.0 mi SSW 4.6 mph - N/A   Clear
9:54 AM 55.0 °F 34.0 °F 45% 30.24 in 10.0 mi SSW 8.1 mph - N/A   Clear
10:54 AM 57.9 °F 37.9 °F 47% 30.23 in 10.0 mi SSW 9.2 mph - N/A   Clear
11:54 AM 61.0 °F 36.0 °F 39% 30.20 in 10.0 mi SSW 8.1 mph - N/A   Clear
12:54 PM 64.0 °F 37.0 °F 37% 30.19 in 10.0 mi SW 5.8 mph - N/A   Clear
1:54 PM 66.0 °F 34.0 °F 30% 30.16 in 10.0 mi Variable 4.6 mph - N/A   Clear
2:54 PM 66.9 °F 36.0 °F 32% 30.13 in 10.0 mi Variable 6.9 mph 17.3 mph N/A   Clear
3:54 PM 69.1 °F 36.0 °F 30% 30.10 in 10.0 mi Variable 6.9 mph - N/A   Scattered Clouds
4:54 PM 68.0 °F 37.9 °F 33% 30.09 in 10.0 mi South 6.9 mph - N/A   Scattered Clouds
5:54 PM 68.0 °F 37.0 °F 32% 30.07 in 10.0 mi SSW 11.5 mph - N/A   Mostly Cloudy
6:54 PM 66.0 °F 39.9 °F 38% 30.06 in 10.0 mi SSW 9.2 mph 19.6 mph N/A   Overcast
7:54 PM 64.0 °F 39.9 °F 41% 30.05 in 10.0 mi South 9.2 mph - N/A   Mostly Cloudy
8:54 PM 60.1 °F 39.9 °F 47% 30.05 in 10.0 mi South 5.8 mph - N/A   Clear
9:54 PM 55.0 °F 41.0 °F 59% 30.05 in 10.0 mi South 5.8 mph - N/A   Clear
10:54 PM 55.0 °F 42.1 °F 62% 30.05 in 10.0 mi South 3.5 mph - N/A   Mostly Cloudy
11:54 PM 55.9 °F 42.1 °F 60% 30.04 in 10.0 mi SSW 5.8 mph - N/A   Overcast